This is the latest recevied weather packets stored in our database for station/object KC2G. If no packets are shown the sender has not sent any weather packets the latest 10 day(s).
| Time | Temp. | Humidity | Pressure | Rain* | Wind** | Luminosity | Snow |
|---|---|---|---|---|---|---|---|
| 1777545955 | 8.33° C | 99% | 1008.9 hPa | 0 mm | 0 m/s | - | - |
| 1777545127 | 8.33° C | 99% | 1008.8 hPa | 0 mm | 0 m/s | - | - |
| 1777545055 | 8.33° C | 99% | 1008.8 hPa | 0 mm | 0 m/s | - | - |
| 1777544155 | 8.33° C | 99% | 1008.7 hPa | 0 mm | 0 m/s | - | - |
| 1777543255 | 8.33° C | 99% | 1008.6 hPa | 0 mm | 0 m/s | - | - |
| 1777542355 | 8.33° C | 99% | 1008.5 hPa | 0 mm | 0 m/s | - | - |
| 1777541455 | 8.33° C | 99% | 1008.5 hPa | 0 mm | 0 m/s | - | - |
| 1777540555 | 8.33° C | 99% | 1008.5 hPa | 0 mm | 0 m/s | - | - |
| 1777539655 | 8.33° C | 99% | 1008.6 hPa | 0 mm | 0 m/s | - | - |
| 1777538755 | 8.33° C | 99% | 1008.7 hPa | 0 mm | 0 m/s | - | - |
| 1777537855 | 8.33° C | 99% | 1008.9 hPa | 0 mm | 0 m/s | - | - |
| 1777536955 | 8.33° C | 99% | 1008.8 hPa | 0 mm | 0 m/s | - | - |
| 1777536055 | 8.33° C | 99% | 1009 hPa | 0 mm | 0 m/s | - | - |
| 1777535155 | 8.33° C | 99% | 1009.1 hPa | 0.25 mm | 0 m/s | - | - |
| 1777534256 | 8.33° C | 99% | 1009.2 hPa | 1.78 mm | 0 m/s | - | - |
| 1777533355 | 8.33° C | 99% | 1009.4 hPa | 1.02 mm | 0 m/s | - | - |
| 1777532456 | 8.33° C | 99% | 1009.4 hPa | 0.76 mm | 0 m/s | - | - |
| 1777531555 | 8.33° C | 99% | 1009.5 hPa | 2.03 mm | 0 m/s | - | - |
| 1777530655 | 8.33° C | 99% | 1009.6 hPa | 3.3 mm | 0 m/s | - | - |
| 1777529755 | 8.33° C | 99% | 1009.7 hPa | 2.03 mm | 0 m/s | - | - |
| 1777528855 | 8.33° C | 99% | 1009.8 hPa | 2.79 mm | 0.45 m/s, 76° | - | - |
| 1777527955 | 8.33° C | 99% | 1010.1 hPa | 2.29 mm | 0 m/s | - | - |
| 1777527055 | 8.33° C | 99% | 1010 hPa | 3.81 mm | 0 m/s | - | - |
| 1777526155 | 8.33° C | 99% | 1009.9 hPa | 6.35 mm | 0 m/s | - | - |
| 1777525256 | 8.33° C | 99% | 1010.3 hPa | 6.86 mm | 0.89 m/s, 84° | - | - |
* Rain latest hour (hover to see other rain measurements)
** Current wind speed in m/s (hover to see current wind gust speed)